Location: Bagong Pook
(14.2541°N, 120.8791°E)
Time: 14:22:27
(UTC+00:00)

SL-8 Rocket - Visible Passes

Search period start: 19 April 2026 00:00
Search period end: 29 April 2026 00:00
Orbit: 957 x 988 km, 82.9° (Epoch: 19 April)

Date Brightness Start Highest point End Pass type
(mag) Time Alt. Az. Time Alt. Az. Time Alt. Az.
19 Apr 5.2 10:24:12 10° SE 10:28:31 20° E 10:32:51 10° NE visible
19 Apr 5.5 12:07:54 10° SSW 12:13:26 34° W 12:19:02 10° NNW visible
20 Apr 4.3 10:47:05 10° SSE 10:52:52 42° E 10:58:41 10° NNE visible
20 Apr 6.6 12:34:26 10° WSW 12:38:05 16° W 12:41:45 10° NW visible
21 Apr 4.0 11:11:04 10° S 11:17:17 88° E 11:23:34 10° N visible
22 Apr 5.1 11:35:56 10° SSW 11:41:48 44° W 11:47:44 10° NNW visible
23 Apr 6.4 12:01:51 10° SW 12:06:24 21° W 12:10:59 10° NW visible
24 Apr 4.0 10:39:31 10° S 10:45:41 69° E 10:51:55 10° N visible
25 Apr 4.7 11:04:05 10° SSW 11:10:10 58° W 11:16:20 10° N visible
26 Apr 6.1 11:29:34 10° SW 11:34:45 28° W 11:39:58 10° NNW visible
26 Apr 7.5 20:59:00 10° ENE 21:00:47 11° E 21:02:34 10° E visible
27 Apr 7.0 11:56:56 10° WSW 11:59:24 12° W 12:01:54 10° WNW visible
28 Apr 4.3 10:32:20 10° S 10:38:33 75° W 10:44:49 10° N visible
